QTR543 KSYR-KISP

Flight info

Callsign QTR543
Flight time N/A
Altitude 26000
Route DCT ALB NELIE3
Aircraft A20N/M-SDE2E3FGHIJ1RWXY/LB1

Departure

Time 2026-04-17 16:29
Airport Syracuse Hancock International Airport (KSYR)

Arrival

Time N/A
Airport Long Island MacArthur Airport (KISP)
Time Latitude Longitude Altitude Speed Heading
2026-04-17 16:03 43.11273 -76.10879 419 ft 0 kts 297°
2026-04-17 16:17 43.11273 -76.10880 419 ft 0 kts 297°
2026-04-17 16:17 43.11270 -76.10870 419 ft 2 kts 291°
2026-04-17 16:17 43.11266 -76.10857 419 ft 1 kts 285°
2026-04-17 16:18 43.11268 -76.10838 419 ft 2 kts 236°
2026-04-17 16:18 43.11280 -76.10825 419 ft 2 kts 191°
2026-04-17 16:18 43.11287 -76.10825 419 ft 1 kts 170°
2026-04-17 16:18 43.11292 -76.10825 419 ft 0 kts 177°
2026-04-17 16:23 43.11282 -76.10825 419 ft 3 kts 178°
2026-04-17 16:23 43.11240 -76.10824 419 ft 8 kts 180°
2026-04-17 16:24 43.11198 -76.10824 419 ft 7 kts 180°
2026-04-17 16:24 43.11136 -76.10822 419 ft 10 kts 178°
2026-04-17 16:24 43.11048 -76.10809 418 ft 14 kts 159°
2026-04-17 16:24 43.11004 -76.10693 416 ft 16 kts 81°
2026-04-17 16:25 43.11015 -76.10518 413 ft 20 kts 90°
2026-04-17 16:25 43.11020 -76.10308 412 ft 23 kts 87°
2026-04-17 16:25 43.11026 -76.10111 410 ft 21 kts 87°
2026-04-17 16:25 43.11033 -76.09895 407 ft 24 kts 88°
2026-04-17 16:26 43.11042 -76.09649 405 ft 26 kts 87°
2026-04-17 16:26 43.11050 -76.09430 402 ft 23 kts 86°
2026-04-17 16:26 43.11029 -76.09283 401 ft 0 kts 146°
2026-04-17 16:27 43.11028 -76.09283 401 ft 0 kts 146°
2026-04-17 16:28 43.11006 -76.09270 401 ft 5 kts 166°
2026-04-17 16:28 43.10951 -76.09280 400 ft 10 kts 216°
2026-04-17 16:28 43.10926 -76.09380 401 ft 12 kts 267°
2026-04-17 16:28 43.10919 -76.09605 404 ft 55 kts 268°
2026-04-17 16:29 43.10890 -76.10503 413 ft 129 kts 268°
2026-04-17 16:29 43.10849 -76.11983 537 ft 176 kts 269°
2026-04-17 16:29 43.10832 -76.13761 1004 ft 196 kts 271°
2026-04-17 16:29 43.10622 -76.15678 1588 ft 212 kts 255°
2026-04-17 16:30 43.09995 -76.17631 2108 ft 234 kts 242°
2026-04-17 16:30 43.09045 -76.19446 2881 ft 242 kts 230°
2026-04-17 16:30 43.07803 -76.21050 3530 ft 257 kts 218°
2026-04-17 16:30 43.06200 -76.22378 3895 ft 273 kts 205°
2026-04-17 16:31 43.04391 -76.23171 3979 ft 277 kts 190°
2026-04-17 16:31 43.02468 -76.23353 3989 ft 276 kts 176°
2026-04-17 16:31 43.00591 -76.22913 3989 ft 274 kts 162°
2026-04-17 16:31 42.98837 -76.21877 3988 ft 272 kts 147°
2026-04-17 16:32 42.97317 -76.20312 3986 ft 270 kts 133°
2026-04-17 16:32 42.96133 -76.18346 4129 ft 275 kts 119°
2026-04-17 16:32 42.95306 -76.15986 5006 ft 276 kts 105°
2026-04-17 16:32 42.94901 -76.13515 6146 ft 269 kts 93°
2026-04-17 16:33 42.94910 -76.11007 7121 ft 268 kts 79°
2026-04-17 16:33 42.95343 -76.08555 8012 ft 270 kts 66°
2026-04-17 16:33 42.96191 -76.06286 8880 ft 271 kts 52°
2026-04-17 16:33 42.97576 -76.04623 9709 ft 272 kts 25°
2026-04-17 16:34 42.99373 -76.03825 10547 ft 275 kts 12°
2026-04-17 16:34 43.01270 -76.03101 11029 ft 292 kts 24°
2026-04-17 16:34 43.02972 -76.01507 11436 ft 312 kts 42°
2026-04-17 16:34 43.04428 -75.99230 11831 ft 331 kts 52°
2026-04-17 16:35 43.05652 -75.96422 12166 ft 351 kts 62°
2026-04-17 16:35 43.06531 -75.93267 12462 ft 371 kts 71°
2026-04-17 16:35 43.07053 -75.89687 12755 ft 390 kts 81°
2026-04-17 16:35 43.07133 -75.85902 13071 ft 407 kts 90°
2026-04-17 16:36 43.06763 -75.82036 13616 ft 415 kts 97°
2026-04-17 16:36 43.06211 -75.78158 14276 ft 419 kts 98°
2026-04-17 16:36 43.05615 -75.74227 14881 ft 423 kts 98°
2026-04-17 16:36 43.05014 -75.70305 15449 ft 427 kts 98°
2026-04-17 16:37 43.04407 -75.66325 16015 ft 431 kts 98°
2026-04-17 16:37 43.03790 -75.62271 16571 ft 434 kts 98°
2026-04-17 16:37 43.03177 -75.58246 17141 ft 437 kts 98°
2026-04-17 16:37 43.02552 -75.54141 17673 ft 440 kts 98°
2026-04-17 16:38 43.01930 -75.50057 18198 ft 443 kts 98°
2026-04-17 16:38 43.01306 -75.45972 19036 ft 438 kts 98°
2026-04-17 16:38 43.00694 -75.41966 19971 ft 431 kts 98°
2026-04-17 16:38 43.00078 -75.37935 20379 ft 438 kts 98°
2026-04-17 16:39 42.99456 -75.33864 20566 ft 450 kts 98°
2026-04-17 16:39 42.98799 -75.29571 20747 ft 460 kts 99°
2026-04-17 16:39 42.98136 -75.25262 21027 ft 468 kts 99°
2026-04-17 16:39 42.97466 -75.20931 21537 ft 469 kts 99°
2026-04-17 16:40 42.96796 -75.16618 22228 ft 466 kts 99°
2026-04-17 16:40 42.96128 -75.12338 22902 ft 464 kts 99°
2026-04-17 16:40 42.95455 -75.08022 23529 ft 462 kts 99°
2026-04-17 16:40 42.94793 -75.03786 24145 ft 461 kts 99°
2026-04-17 16:41 42.94125 -74.99525 24727 ft 461 kts 99°
2026-04-17 16:41 42.93449 -74.95225 25213 ft 463 kts 99°
2026-04-17 16:41 42.92772 -74.90933 25646 ft 466 kts 99°
2026-04-17 16:41 42.92090 -74.86619 25894 ft 469 kts 99°
2026-04-17 16:42 42.91404 -74.82295 25913 ft 471 kts 99°
2026-04-17 16:42 42.90707 -74.77908 25920 ft 471 kts 99°
2026-04-17 16:42 42.90014 -74.73562 25922 ft 471 kts 99°
2026-04-17 16:42 42.89313 -74.69237 25925 ft 471 kts 99°
2026-04-17 16:43 42.88601 -74.64892 25923 ft 470 kts 100°
2026-04-17 16:43 42.87894 -74.60571 25926 ft 471 kts 99°
2026-04-17 16:43 42.87181 -74.56194 25926 ft 470 kts 99°
2026-04-17 16:43 42.86480 -74.51874 25925 ft 471 kts 99°
2026-04-17 16:44 42.85774 -74.47520 25924 ft 471 kts 99°
2026-04-17 16:44 42.85075 -74.43210 25926 ft 471 kts 99°
2026-04-17 16:44 42.84371 -74.38879 25928 ft 471 kts 99°
2026-04-17 16:44 42.83662 -74.34529 25927 ft 470 kts 100°
2026-04-17 16:45 42.82957 -74.30201 25922 ft 471 kts 100°
2026-04-17 16:45 42.82241 -74.25814 25923 ft 471 kts 100°
2026-04-17 16:45 42.81530 -74.21471 25924 ft 471 kts 100°
2026-04-17 16:45 42.80821 -74.17155 25921 ft 472 kts 100°
2026-04-17 16:46 42.80104 -74.12804 25927 ft 473 kts 100°
2026-04-17 16:46 42.79380 -74.08426 25926 ft 473 kts 100°
2026-04-17 16:46 42.78659 -74.04060 25926 ft 473 kts 100°
2026-04-17 16:46 42.77943 -73.99745 25925 ft 472 kts 100°
2026-04-17 16:47 42.77219 -73.95386 25926 ft 473 kts 100°
2026-04-17 16:47 42.76492 -73.91019 25924 ft 473 kts 101°
2026-04-17 16:47 42.75763 -73.86686 25926 ft 473 kts 101°
2026-04-17 16:47 42.74730 -73.82430 25916 ft 476 kts 112°
2026-04-17 16:48 42.73118 -73.78487 25921 ft 478 kts 123°
2026-04-17 16:48 42.71014 -73.75018 25926 ft 478 kts 133°
2026-04-17 16:48 42.68708 -73.71765 25924 ft 479 kts 134°
2026-04-17 16:48 42.66371 -73.68547 25924 ft 480 kts 134°
2026-04-17 16:49 42.64011 -73.65297 25922 ft 480 kts 134°
2026-04-17 16:49 42.61695 -73.62093 25924 ft 480 kts 134°
2026-04-17 16:49 42.59369 -73.58860 25921 ft 480 kts 134°
2026-04-17 16:49 42.57027 -73.55600 25922 ft 481 kts 134°
2026-04-17 16:50 42.54722 -73.52386 25919 ft 480 kts 134°
2026-04-17 16:50 42.52391 -73.49135 25917 ft 480 kts 134°
2026-04-17 16:50 42.50076 -73.45908 25912 ft 480 kts 134°
2026-04-17 16:50 42.47725 -73.42635 25913 ft 480 kts 134°
2026-04-17 16:51 42.45424 -73.39434 25914 ft 480 kts 134°
2026-04-17 16:51 42.43082 -73.36182 25918 ft 480 kts 134°
2026-04-17 16:51 42.40756 -73.32952 25855 ft 475 kts 135°
2026-04-17 16:51 42.38474 -73.29773 25316 ft 472 kts 135°
2026-04-17 16:52 42.36247 -73.26678 24348 ft 477 kts 134°
2026-04-17 16:52 42.33929 -73.23469 23292 ft 481 kts 135°
2026-04-17 16:52 42.31589 -73.20266 22368 ft 480 kts 134°
2026-04-17 16:52 42.29288 -73.17083 21594 ft 481 kts 134°
2026-04-17 16:53 42.26968 -73.13856 21109 ft 479 kts 134°
2026-04-17 16:53 42.24654 -73.10646 20925 ft 478 kts 134°
2026-04-17 16:53 42.22321 -73.07420 20913 ft 479 kts 134°
2026-04-17 16:53 42.19997 -73.04218 20907 ft 479 kts 135°
2026-04-17 16:54 42.17659 -73.01006 20897 ft 479 kts 135°
2026-04-17 16:54 42.15340 -72.97826 20891 ft 479 kts 135°
2026-04-17 16:54 42.12992 -72.94613 20900 ft 479 kts 135°
2026-04-17 16:54 42.10669 -72.91439 20894 ft 478 kts 135°
2026-04-17 16:55 42.08310 -72.88216 20895 ft 479 kts 135°
2026-04-17 16:55 42.05969 -72.85021 20891 ft 478 kts 135°
2026-04-17 16:55 42.03629 -72.81831 20890 ft 478 kts 135°
2026-04-17 16:55 42.01298 -72.78658 20884 ft 477 kts 135°
2026-04-17 16:56 41.98970 -72.75490 20878 ft 477 kts 135°
2026-04-17 16:56 41.96622 -72.72300 20877 ft 477 kts 135°
2026-04-17 16:56 41.94368 -72.69031 20872 ft 478 kts 132°
2026-04-17 16:56 41.92246 -72.65555 20872 ft 479 kts 128°
2026-04-17 16:57 41.90255 -72.61981 20863 ft 480 kts 127°
2026-04-17 16:57 41.88252 -72.58359 20872 ft 479 kts 127°
2026-04-17 16:57 41.86335 -72.54907 20865 ft 479 kts 128°
2026-04-17 16:57 41.84329 -72.51299 20871 ft 479 kts 128°
2026-04-17 16:58 41.82355 -72.47755 20872 ft 480 kts 128°
2026-04-17 16:58 41.80364 -72.44172 20877 ft 479 kts 128°
2026-04-17 16:58 41.78367 -72.40582 20870 ft 479 kts 128°
2026-04-17 16:58 41.76399 -72.37047 20877 ft 480 kts 128°
2026-04-17 16:59 41.74383 -72.33427 20867 ft 480 kts 129°
2026-04-17 16:59 41.72395 -72.29849 20872 ft 479 kts 129°
2026-04-17 16:59 41.70404 -72.26269 20878 ft 479 kts 129°
2026-04-17 16:59 41.68417 -72.22712 20875 ft 479 kts 129°
2026-04-17 17:00 41.66438 -72.19173 20869 ft 479 kts 129°
2026-04-17 17:00 41.64437 -72.15608 20870 ft 474 kts 129°
2026-04-17 17:00 41.62481 -72.12127 20666 ft 461 kts 129°
2026-04-17 17:00 41.60593 -72.08780 20410 ft 446 kts 131°
2026-04-17 17:01 41.58453 -72.05941 19812 ft 434 kts 148°
2026-04-17 17:01 41.55773 -72.04231 19008 ft 425 kts 167°
2026-04-17 17:01 41.52867 -72.03704 18041 ft 420 kts 185°
2026-04-17 17:01 41.50035 -72.04339 16923 ft 419 kts 201°
2026-04-17 17:02 41.47420 -72.06008 15985 ft 415 kts 212°
2026-04-17 17:02 41.44918 -72.07916 15248 ft 412 kts 212°
2026-04-17 17:02 41.42435 -72.09794 14525 ft 408 kts 212°
2026-04-17 17:02 41.40002 -72.11660 13782 ft 405 kts 215°
2026-04-17 17:03 41.37705 -72.13851 12894 ft 403 kts 222°
2026-04-17 17:03 41.35698 -72.16310 12394 ft 392 kts 228°
2026-04-17 17:03 41.33871 -72.18973 11926 ft 382 kts 231°
2026-04-17 17:03 41.32130 -72.21592 11432 ft 374 kts 231°
2026-04-17 17:04 41.30443 -72.24141 10952 ft 367 kts 231°
2026-04-17 17:04 41.28760 -72.26679 10519 ft 360 kts 231°
2026-04-17 17:04 41.27132 -72.29128 10042 ft 353 kts 231°
2026-04-17 17:04 41.25519 -72.31548 9585 ft 347 kts 231°
2026-04-17 17:05 41.23932 -72.33927 9214 ft 340 kts 231°
2026-04-17 17:05 41.22371 -72.36265 8837 ft 333 kts 231°
2026-04-17 17:05 41.20865 -72.38514 8646 ft 324 kts 231°
2026-04-17 17:05 41.19394 -72.40710 8335 ft 313 kts 231°
2026-04-17 17:06 41.17965 -72.42841 8099 ft 300 kts 231°
2026-04-17 17:06 41.16615 -72.44849 7793 ft 287 kts 231°
2026-04-17 17:06 41.15316 -72.46783 7552 ft 275 kts 231°
2026-04-17 17:06 41.14058 -72.48654 7337 ft 264 kts 231°
2026-04-17 17:07 41.12856 -72.50442 7115 ft 254 kts 231°
2026-04-17 17:07 41.11716 -72.52141 6921 ft 244 kts 231°
2026-04-17 17:07 41.10605 -72.53794 6655 ft 235 kts 231°
2026-04-17 17:07 41.09528 -72.55396 6389 ft 227 kts 231°
2026-04-17 17:08 41.08482 -72.56951 6192 ft 227 kts 231°
2026-04-17 17:08 41.07440 -72.58498 5981 ft 227 kts 231°
2026-04-17 17:08 41.06391 -72.60056 5801 ft 225 kts 231°
2026-04-17 17:08 41.05356 -72.61591 5556 ft 219 kts 231°
2026-04-17 17:09 41.04356 -72.63071 5343 ft 214 kts 231°
2026-04-17 17:09 41.03373 -72.64527 5153 ft 212 kts 231°
2026-04-17 17:09 41.02395 -72.65979 4969 ft 211 kts 231°
2026-04-17 17:09 41.01410 -72.67449 4784 ft 211 kts 231°
2026-04-17 17:10 41.00442 -72.68891 4605 ft 212 kts 231°
2026-04-17 17:10 40.99454 -72.70359 4426 ft 211 kts 231°
2026-04-17 17:10 40.98478 -72.71802 4250 ft 210 kts 231°
2026-04-17 17:10 40.97508 -72.73236 4058 ft 209 kts 230°
2026-04-17 17:11 40.96534 -72.74673 4010 ft 209 kts 230°
2026-04-17 17:11 40.95571 -72.76095 4002 ft 210 kts 230°
2026-04-17 17:11 40.94596 -72.77531 3996 ft 210 kts 231°
2026-04-17 17:11 40.93587 -72.78946 3995 ft 210 kts 228°
2026-04-17 17:12 40.92554 -72.80326 3996 ft 210 kts 227°
2026-04-17 17:12 40.91529 -72.81679 3996 ft 210 kts 227°
2026-04-17 17:12 40.90488 -72.83048 3997 ft 210 kts 227°
2026-04-17 17:12 40.89446 -72.84410 3997 ft 210 kts 227°
2026-04-17 17:13 40.88405 -72.85751 3996 ft 210 kts 227°
2026-04-17 17:13 40.87345 -72.87109 3995 ft 210 kts 227°
2026-04-17 17:13 40.86300 -72.88451 3994 ft 210 kts 227°
2026-04-17 17:13 40.85246 -72.89808 3996 ft 210 kts 227°
2026-04-17 17:14 40.84196 -72.91165 3994 ft 210 kts 227°
2026-04-17 17:14 40.83159 -72.92509 3995 ft 210 kts 227°
2026-04-17 17:14 40.82129 -72.93844 3921 ft 206 kts 227°
2026-04-17 17:15 40.80061 -72.96531 3343 ft 207 kts 227°
2026-04-17 17:15 40.79030 -72.97877 3073 ft 207 kts 227°
2026-04-17 17:15 40.78009 -72.99210 2805 ft 207 kts 227°
2026-04-17 17:15 40.76969 -73.00571 2536 ft 207 kts 227°
2026-04-17 17:16 40.75940 -73.01914 2272 ft 206 kts 227°
2026-04-17 17:16 40.74927 -73.03232 2053 ft 203 kts 227°
2026-04-17 17:16 40.73925 -73.04535 2011 ft 204 kts 227°
2026-04-17 17:16 40.72911 -73.05864 2002 ft 205 kts 227°
2026-04-17 17:17 40.71899 -73.07191 1999 ft 205 kts 227°
2026-04-17 17:17 40.70885 -73.08514 1998 ft 205 kts 227°
2026-04-17 17:17 40.69871 -73.09834 1997 ft 205 kts 227°
2026-04-17 17:17 40.68844 -73.11172 1997 ft 206 kts 227°
2026-04-17 17:18 40.67828 -73.12501 1998 ft 205 kts 230°
2026-04-17 17:18 40.67145 -73.14069 1988 ft 198 kts 264°
2026-04-17 17:18 40.67306 -73.15816 1997 ft 191 kts 301°
2026-04-17 17:18 40.68191 -73.17111 2012 ft 190 kts 322°
2026-04-17 17:19 40.69276 -73.18136 2009 ft 192 kts 327°
2026-04-17 17:19 40.70385 -73.19098 2008 ft 192 kts 327°
2026-04-17 17:19 40.71563 -73.19923 1995 ft 192 kts 348°
2026-04-17 17:19 40.72876 -73.19770 1999 ft 193 kts 26°
2026-04-17 17:20 40.73840 -73.18564 2007 ft 197 kts 58°
2026-04-17 17:20 40.74580 -73.17002 2011 ft 199 kts 49°
2026-04-17 17:20 40.75487 -73.15641 1950 ft 194 kts 43°
2026-04-17 17:20 40.76398 -73.14472 1979 ft 172 kts 41°
2026-04-17 17:21 40.77228 -73.13398 1777 ft 161 kts 42°
2026-04-17 17:21 40.77998 -73.12382 1466 ft 161 kts 42°
2026-04-17 17:21 40.78869 -73.11243 435 ft 199 kts 44°
2026-04-17 17:21 40.79837 -73.09946 97 ft 187 kts 44°